Starlink 35191

operational
NORAD ID: 65594 Int'l Des: 2025-207 Owner: SPXS Country: US Constellation: starlink
NOTLE

Über Starlink 35191

Beschreibung wird geladen...

Live-Position

3D-Globus wird geladen...

Nächste Überflüge

Höhenverlauf

Altitude vs Time

uPlot chart will show altitude changes over time

Zweizeiliger Elementsatz

1 65594U 25207C 25308.63103386 .00059167 00000-0 15090-2 0 9998
2 65594 97.6045 12.9069 0001793 89.3896 270.7555 15.39312870 9113
Epoch: 4. Nov. 2025 • Age: 19 hours

Aktueller Status

Höhe 453.8 km
Geschwindigkeit 7.65 km/s
Subsatellitenpunkt 44.91°N, 170.3°E
Startdatum 13. Sept. 2025
Alter 0.1 years
Typ internet

Technische Details

Klassifizierung Payload
Masse 575.00 kg
Trockenmasse 530.00 kg
Gesamtmasse 575.00 kg
Länge 0.30 m
Durchmesser 4.10 m
Spannweite 29.00 m
Form Box + pan
Hersteller SPXS
Bus-Typ Starlink V2MO
Phasenstatus In Orbit
Besitzer/Staat SPXS/US

Große Konstellationen

Loading constellations...